This is the latest recevied weather packets stored in our database for station/object W0VI. If no packets are shown the sender has not sent any weather packets the latest 10 day(s).
| Time | Temp. | Humidity | Pressure | Rain* | Wind** | Luminosity | Snow |
|---|---|---|---|---|---|---|---|
| 1788031485 | 25.56° C | 74% | 1010.3 hPa | 0 mm | - | 502 W/m² | - |
| 1788031179 | 26.11° C | 72% | 1010.5 hPa | 0 mm | - | 301 W/m² | - |
| 1788030878 | 26.11° C | 72% | 1010.2 hPa | 0 mm | - | 658 W/m² | - |
| 1788030573 | 25.56° C | 73% | 1010.4 hPa | 0 mm | - | 352 W/m² | - |
| 1788030268 | 26.11° C | 74% | 1010.2 hPa | 0 mm | - | 342 W/m² | - |
| 1788029963 | 25.56° C | 74% | 1010.3 hPa | 0 mm | - | 360 W/m² | - |
| 1788029658 | 25.56° C | 74% | 1010.3 hPa | 0 mm | - | 302 W/m² | - |
| 1788029353 | 25.56° C | 73% | 1010.6 hPa | 0 mm | - | 398 W/m² | - |
| 1788029052 | 25° C | 75% | 1010.5 hPa | 0 mm | - | 768 W/m² | - |
| 1788028752 | 25° C | 75% | 1010.6 hPa | 0 mm | - | 322 W/m² | - |
| 1788028447 | 25° C | 77% | 1010.5 hPa | 0 mm | - | 254 W/m² | - |
| 1788028142 | 25° C | 75% | 1010.6 hPa | 0 mm | - | 357 W/m² | - |
| 1788027836 | 25° C | 77% | 1010.7 hPa | 0 mm | - | 308 W/m² | - |
| 1788027530 | 24.44° C | 78% | 1010.5 hPa | 0 mm | - | 362 W/m² | - |
| 1788027225 | 24.44° C | 77% | 1010.7 hPa | 0 mm | - | 280 W/m² | - |
| 1788026924 | 24.44° C | 77% | 1011.1 hPa | 0 mm | - | 254 W/m² | - |
| 1788026620 | 24.44° C | 78% | 1011.1 hPa | 0 mm | - | 252 W/m² | - |
| 1788026315 | 24.44° C | 77% | 1010.9 hPa | 0 mm | - | 293 W/m² | - |
| 1788026010 | 24.44° C | 77% | 1011.1 hPa | 0 mm | - | 249 W/m² | - |
| 1788025709 | 24.44° C | 78% | 1011.1 hPa | 0 mm | - | 275 W/m² | - |
| 1788025408 | 23.33° C | 80% | 1011.1 hPa | 0 mm | - | 307 W/m² | - |
| 1788025104 | 23.33° C | 81% | 1011.1 hPa | 0 mm | - | 265 W/m² | - |
| 1788024797 | 22.78° C | 81% | 1011.3 hPa | 0 mm | - | 196 W/m² | - |
| 1788024488 | 23.33° C | 81% | 1011.4 hPa | 0 mm | - | 173 W/m² | - |
| 1788024181 | 23.33° C | 81% | 1011.6 hPa | 0 mm | - | 169 W/m² | - |
* Rain latest hour (hover to see other rain measurements)
** Current wind speed in m/s (hover to see current wind gust speed)